www.pogodaiklimat.ru

Погода и климат >> Архив погоды >> Россия >> Волгоградская область >> Котельниково


ПОГОДА в Котельниково

  • Прогноз погоды в Котельниково
  • Монитор погоды в Котельниково

АРХИВ ПОГОДЫ в Котельниково

Время (UTC), дата Ветер
(напр.,м/с)
 
Видим.   Явления Облачность Т
(С)
Тd
(С)
f
(%)
Тe
(С)
Тes
(С)
Комфортность P
(гПа)
Po
(гПа)
Тmin
(С)
Tmax
(С)
R
(мм)
R24
(мм)
S
(см)
06 11.06 В 5 10 км ясно +29.6 +6.1 23 +28 +34 жарко 1017.1 1011.6
09 11.06 В 5-10
{11}
10 км ясно +32.8 +2.6 15 +30 +40 жарко 1015.9 1010.4
12 11.06 В 6-10
{12}
10 км 3/3 600 м
[Cu hum]
+35.2 +1.8 12 +32 +35 жарко 1013.8 1008.4
15 11.06 В 6-11
{12}
10 км 3/0
[Ac trans]
+34.7 +0.7 12 +31 +32 жарко 1012.5 1007.0 +35.6
18 11.06 СВ 2
{11}
10 км 6/0
[Ac trans]
+27.0 +3.5 22 +26 +26 жарко 1013.3 1007.7
21 11.06 СВ 2 10 км ясно +21.3 +4.2 33 +22 +22 комфорт 1014.1 1008.4
00 12.06 В 1 10 км ясно +17.6 +6.0 46 +19 +19 1014.1 1008.3
03 12.06 СВ 2 10 км ясно +20.4 +8.5 46 +22 +24 комфорт 1014.3 1008.6 +16.3
06 12.06 В 6 10 км 4/0
[Ac trans]
+31.4 +5.2 19 +29 +33 жарко 1013.6 1008.1
09 12.06 В 6-11
{12}
10 км 8/0
[Ac trans]
+35.0 +0.8 12 +32 +35 жарко 1012.6 1007.2
12 12.06 СВ 5
{13}
10 км 8/8 600 м
[Cu med, cong]
+36.2 +0.4 10 +32 +34 жарко 1011.0 1005.6
15 12.06 ЮЗ 1
{13}
10 км 6/6 600 м
[Cu med, cong]
+32.9 +5.0 17 +30 +31 жарко 1010.1 1004.7 +36.7
18 12.06 штиль 0 10 км 3/0
[Ac trans]
+23.2 +14.3 57 +27 +27 душно 1011.4 1005.8
21 12.06 СВ 1 10 км 3/0
[Ac trans]
+18.2 +10.2 60 +20 +20 1011.6 1005.9
00 13.06 Ю 2 10 км ясно +14.9 +9.5 70 +15 +15 1011.8 1006.0
03 13.06 штиль 0 10 км 4/0
[Ac trans]
+19.4 +16.7 84 +21 +23 комфорт 1012.0 1006.3 +14.3
06 13.06 СЗ 1 10 км 3/0
[Ac trans]
+31.9 +4.6 18 +30 +41 жарко 1012.0 1006.6
09 13.06 СЗ 3 10 км 4/4 600 м
[Cu hum]
+35.8 +3.1 13 +33 +42 жарко 1010.9 1005.6
12 13.06 В 3 10 км 6/6 600 м
[]
+36.0 -0.4 10 +32 +36 жарко 1010.0 1004.7
15 13.06 СВ 10-17
{18}
10 км 8/8 600 м
[Cu med, cong]
+32.3 +9.2 24 +31 +31 жарко 1010.9 1005.5 +37.5
18 13.06 В 8-12
{17}
10 км 6/6 600 м
[Cu med, cong]
+27.1 +9.4 33 +27 +27 жарко 1015.7 1010.2
21 13.06 СВ 8-13
{13}
10 км 8/8 600 м
[Sc diur, vesp]
+22.8 +8.5 40 +24 +24 комфорт 1016.4 1010.8
00 14.06 СВ 7-10
{13}
10 км 6/6 600 м
[Sc diur, vesp]
+18.2 -0.6 28 +18 +18 1017.6 1012.0
03 14.06 В 6-10
{11}
10 км 3/0
[]
+17.0 +0.6 33 +16 +17 1019.7 1014.0 +15.3
06 14.06 В 7-12
{12}
10 км ясно +21.4 0.0 24 +21 +24 комфорт 1020.2 1014.4
09 14.06 В 6-10
{12}
10 км ясно +26.2 +3.5 23 +25 +32 комфорт 1019.3 1013.7
12 14.06 СВ 4
{10}
10 км ясно +28.3 -5.1 11 +25 +33 комфорт 1018.2 1012.6
15 14.06 СВ 3 10 км ясно +28.0 -6.3 10 +25 +26 комфорт 1017.2 1011.7 +28.8
18 14.06 СВ 4 10 км ясно +20.8 0.0 25 +21 +21 комфорт 1016.1 1010.5
21 14.06 СВ 4 10 км ясно +14.0 -1.2 35 +13 +13 1016.8 1011.2
00 15.06 штиль 0 10 км ясно +9.0 +2.2 62 +9 +9 1016.7 1010.8
03 15.06 штиль 0 10 км ясно +14.4 +2.1 43 +14 +17 1016.6 1010.8 +7.9
06 15.06 Ю 1 10 км ясно +27.3 -4.2 12 +24 +38 комфорт 1015.7 1010.1
09 15.06 СЗ 2 10 км ясно +30.6 -5.5 9 +27 +45 жарко 1014.1 1008.6
12 15.06 СЗ 2 10 км ясно +32.3 -5.4 8 +28 +41 жарко 1012.4 1007.0
15 15.06 СЗ 2 10 км ясно +32.3 +1.5 14 +29 +32 жарко 1010.9 1005.4 +32.9
18 15.06 штиль 0 10 км ясно +22.6 +7.0 37 +23 +23 комфорт 1011.4 1005.8
21 15.06 С 1 10 км ясно +18.4 +7.8 50 +20 +20 1011.0 1005.3
00 16.06 ЮЗ 1 10 км ясно +16.9 +11.1 69 +18 +18 1010.5 1004.8
03 16.06 ЮЗ 1 10 км ясно +18.5 +11.5 64 +20 +22 1010.4 1004.8 +15.8
06 16.06 СЗ 1 10 км ясно +29.1 +13.6 39 +31 +44 жарко 1010.0 1004.6
09 16.06 СЗ 3 10 км 3/3 600 м
[Cu hum]
+32.4 +9.8 25 +32 +43 жарко 1009.4 1004.1
12 16.06 С 4 10 км 6/6 600 м
[Cu med, cong]
+31.7 +9.3 25 +31 +34 жарко 1008.1 1002.7
15 16.06 СЗ 3 10 км 6/6 600 м
[Cu med, cong]
+32.1 +10.0 26 +32 +32 жарко 1007.3 1001.9 +33.8
18 16.06 СВ 4
{11}
10 км 8/8 600 м
[Sc diur, vesp]
+24.7 +13.3 49 +27 +27 жарко 1008.2 1002.7
21 16.06 С 6
{15}
10 км 6/6 600 м
[Sc diur, vesp]
+18.8 +14.6 77 +19 +19 1010.4 1004.7
00 17.06 С 1 10 км 10/10 600 м
[Sc diur, vesp]
+19.3 +14.2 72 +22 +22 комфорт 1009.9 1004.2
03 17.06 С 2 10 км {гроза, ливн. осадки} 3/3 600 м
[Cu hum]
+19.1 +15.6 80 +21 +22 комфорт 1010.6 1004.9 +17.8 1
06 17.06 СВ 4 10 км ясно +23.9 +14.0 54 +26 +34 жарко 1011.7 1006.2
09 17.06 СВ 5-10
{10}
10 км 3/3 600 м
[Cu hum]
+17.5 +11.8 69 +17 +23 1011.9 1006.5
12 17.06 С 4-10
{10}
10 км 3/3 600 м
[Cu hum]
+29.0 +9.7 30 +29 +35 жарко 1011.4 1006.0
15 17.06 С 4
{10}
10 км ясно +28.5 +7.7 27 +28 +29 жарко 1011.3 1005.9 +29.4
18 17.06 С 2 10 км ясно +23.4 +7.5 36 +24 +24 комфорт 1012.4 1006.9
21 17.06 С 1 10 км ясно +20.1 +8.4 47 +22 +22 комфорт 1012.9 1007.3
00 18.06 С 2 10 км ясно +17.4 +10.8 65 +18 +18 1012.8 1007.0

 

Местоположение метеостанции Котельниково (Волгоградская область, Россия): широта 47.63 долгота 43.15 высота над уровнем моря 47 м.

В архиве по умолчанию представлена погода в Котельниково за последнюю неделю. Архивные данные за месяц целиком и за предыдущие месяцы, начиная с января 2011 года, Вы можете получить, выбрав интересующий диапазон дат из раскрывающегося списка и нажав кнопку "Ввод!".


*Определитесь, кто Вы:
робот инопланетянин человек

Внимание! Время в таблицах - всемирное. Для получения местного времени необходимо прибавить поправку, которая равна 3 ч.

Смотрите также архив погоды в соседних городах и на ближайших метеорологических станциях:

Погода в Зимовниках (Ростовская область, Россия) (73 км)
Погода в Цимлянске (Ростовская область, Россия) (77 км)
Погода в Нижнем Чире (Волгоградская область, Россия) (78 км)
Погода в Кетченерах (Калмыкия, Россия) (112 км)
Погода в Калаче-на-Дону (Волгоградская область, Россия) (119 км)
Погода в Малых Дербетах (Калмыкия, Россия) (121 км)
Погода в Ремонтном (Ростовская область, Россия) (124 км)
Погода в Морозовске (Ростовская область, Россия) (124 км)
Погода в Волгограде город (Волгоградская область, Россия) (151 км)
Погода в Константиновске (Ростовская область, Россия) (154 км)

Пояснения к столбцам:

Ветер - указаны скорость ветра в м/с - средняя за 10 мин, порывы в срок и между сроками (в фигурных скобках) и направление, откуда дует ветер: С - северный, СВ - северо-восточный, В - восточный, ЮВ - юго-восточный, Ю - южный, ЮЗ - юго-западный, З - западный, СЗ - северо-западный.
Видимость - горизонтальная дальность видимости в метрах или километрах. При видимости от 1 до 10 км при отсутствии осадков обычно наблюдается дымка, при ухудшении видимости до 1 км и менее - туман. В сухую погоду видимость может ухудшаться дымом, пылью или мглою.
Явления - указаны атмосферные явления, наблюдавшиеся в срок или в последний час перед сроком; фигурными скобками обозначены явления, наблюдавшиеся между сроками (за 1-3 часа до срока); квадратными скобками обозначены град или гололедные отложения с указанием их диаметра в мм.
Облачность - указаны через наклонную черту общая и нижняя облачность в баллах и высота нижней границы облаков в метрах; квадратными скобками обозначены формы облаков: Ci - перистые, Cs - перисто-слоистые, Cc - перисто-кучевые, Ac - высококучевые, As - высокослоистые, Sc - слоисто-кучевые, Ns - слоисто-дождевые, Cu - кучевые, Cb - кучево-дождевые. Подробнее классификацию облаков см. в Атласе облаков (PDF).
T - Температура воздуха - температура, измеренная на высоте 2 м над землей.
Td - Температура точки росы - температура, при понижении до которой содержащийся в воздухе водяной пар достигнет насыщения.
f - Относительная влажность воздуха - влажноcть воздуха, измеренная на высоте 2 м над землей.
Te - Эффективная температура - температура, которую ощущает одетый по сезону человек в тени. Характеристика душности погоды. При расчете учитывается влияние влажности воздуха и скорости ветра на теплоощущения человека.
Tes - Эффективная температура на солнце - температура, которую ощущает человек, с поправкой на солнечный нагрев. Характеристика знойности погоды. Зависит от высоты солнца над горизонтом, облачности и скорости ветра. Ночью, в пасмурную погоду, а также при ветре 12 м/с и более поправка равна нулю.
P - Атмосферное давление - приведенное к уровню моря атмосферное давление.
Po - Атмосферное давление - измеренное на уровне метеостанции атмосферное давление.
Tmin - Минимальная температура - минимум температуры воздуха на высоте 2 м над землей.
Tmax - Максимальная температура - максимум температуры воздуха на высоте 2 м над землей.
R - Количество осадков - Количество выпавших осадков за период времени, мм. При наведении курсора мыши на число - период времени, за который выпало указанное количество осадков.
R24 - Количество осадков - Количество выпавших осадков за 24 часа, мм.
S - Снежный покров - Высота снежного покрова, см. При наведении курсора мыши на число - состояние снежного покрова и степень покрытия местности в баллах.